Location: ???????
(38.3360°N, 23.6977°E)
Time: 23:34:57
(UTC+00:00)

Aureole 3 Rocket - Pass Details

Date: 17 November 2025
Orbit: 398 x 1690 km, 82.5° (Epoch: 09 December)

Event Time Altitude Azimuth Distance (km) Brightness Sun altitude
Rises 16:06:48 0° 182° (S) 2,417 6.3 -11.1°
Reaches altitude 10° 16:08:53 10° 180° (S) 1,485 5.2 -11.5°
Maximum altitude 16:11:57 70° 96° (E) 427 2.0 -12.1°
Drops below altitude 10° 16:15:00 10° 12° (NNE) 1,474 4.8 -12.6°
Enters shadow 16:16:45 - 10° (N) 2,250 5.7 -13.0°
